{"data":{"norad_id":68622,"epoch":"2026-09-20T00:15:42.816672Z","epoch_age_seconds":86042,"freshness":"FRESH","line1":"1 68622U 26073W   26263.01091223  .00031689  00000+0  97959-3 0  9997","line2":"2 68622  97.2848 101.0032 0001773  85.1768 274.9678 15.33450567 25665","mean_motion":15.33450567,"eccentricity":0.0001773,"inclination_deg":97.2848,"raan_deg":101.0032,"arg_perigee_deg":85.1768,"mean_anomaly_deg":274.9678,"bstar":0.00097959,"rev_number":2566,"period_min":93.905863742134,"perigee_km":464.31322949472,"apogee_km":466.7399926112,"semimajor_km":6843.663611053,"source":"CELESTRAK","updated_at":"2026-09-20T09:00:43.947508Z"}}